User: anonymous   Login
Location: Fort Wayne
(41.1310°N, 85.1290°W)
Time: 19:23:43
(UTC-05:00)
Language:

Cosmos 2219 Rocket - Orbit

View from above orbital plane
View from above orbital plane
View from above satellite
View from above satellite

Ground track
Ground track

The orbit data is extracted from the following two-line orbital elements,

1 22220U 92076B   18019.84536324 -.00000251  00000-0 -10178-3 0  9996
2 22220  71.0015 323.1891 0015026 297.6350  93.8448 14.16426230301455
Epoch (UTC): 19 January 2018 20:17:19
Eccentricity: 0.0015026
inclination: 71.0015°
perigee height: 826 km
apogee height: 848 km
right ascension of ascending node: 323.1891°
argument of perigee: 297.6350°
revolutions per day: 14.16426230
mean anomaly at epoch: 93.8448°
orbit number at epoch: 30145

The dashed part of the orbit path shows where the satellite is in the earth's shadow,  

DLR